| time (UTC) | temp C | wind direction | speed KPH | gust KPH | rain 1hr cm | rain 24hr cm | rain mn cm | humidity % | barometer mb |
| 20260906191621 | 20 | 355 | 12.9 | 20.9 | 0.00 | 0.00 | 0.00 | 53 | 1015.2 |
| 20260906191100 | 20 | 336 | 9.7 | 20.9 | 0.00 | 0.00 | 0.00 | 51 | 1015.1 |
| 20260906191001 | 20 | 314 | 4.8 | 20.9 | 0.00 | 0.00 | 0.00 | 53 | 1015.1 |
| 20260906190559 | 20 | 302 | 12.9 | 20.9 | 0.00 | 0.00 | 0.00 | 53 | 1015.1 |
| 20260906185558 | 20 | 296 | 6.4 | 9.7 | 0.00 | 0.00 | 0.00 | 57 | 1015.2 |
| 20260906185058 | 20 | 305 | 4.8 | 9.7 | 0.00 | 0.00 | 0.00 | 52 | 1015.1 |
| 20260906184558 | 20 | 27 | 3.2 | 9.7 | 0.00 | 0.00 | 0.00 | 53 | 1015.1 |
| 20260906184100 | 20 | 300 | 3.2 | 12.9 | 0.00 | 0.00 | 0.00 | 53 | 1015.2 |
| 20260906183558 | 20 | 316 | 6.4 | 12.9 | 0.00 | 0.00 | 0.00 | 52 | 1015.3 |
| 20260906183101 | 20 | 104 | 3.2 | 16.1 | 0.00 | 0.00 | 0.00 | 54 | 1015.3 |
| 20260906182557 | 20 | 319 | 8.0 | 16.1 | 0.00 | 0.00 | 0.00 | 52 | 1015.4 |
| 20260906182056 | 20 | 323 | 4.8 | 14.5 | 0.00 | 0.00 | 0.00 | 52 | 1015.3 |
| 20260906181557 | 20 | 36 | 6.4 | 12.9 | 0.00 | 0.00 | 0.00 | 52 | 1015.3 |
| 20260906181056 | 20 | 52 | 6.4 | 12.9 | 0.00 | 0.00 | 0.00 | 57 | 1015.4 |
| 20260906180555 | 19 | 11 | 1.6 | 9.7 | 0.00 | 0.00 | 0.00 | 56 | 1015.5 |
| 20260906180057 | 20 | 314 | 4.8 | 20.9 | 0.00 | 0.00 | 0.00 | 53 | 1015.5 |
| 20260906175553 | 20 | 332 | 6.4 | 20.9 | 0.00 | 0.00 | 0.00 | 59 | 1015.5 |
| 20260906175056 | 19 | 344 | 3.2 | 9.7 | 0.00 | 0.00 | 0.00 | 57 | 1015.5 |
| 20260906174606 | 19 | 17 | 4.8 | 17.7 | 0.00 | 0.00 | 0.00 | 55 | 1015.5 |
| 20260906174053 | 19 | 350 | 6.4 | 16.1 | 0.00 | 0.00 | 0.00 | 54 | 1015.5 |
| 20260906173553 | 19 | 321 | 4.8 | 16.1 | 0.00 | 0.00 | 0.00 | 60 | 1015.5 |
| 20260906173051 | 19 | 306 | 8.0 | 16.1 | 0.00 | 0.00 | 0.00 | 55 | 1015.6 |
| 20260906172551 | 18 | 78 | 4.8 | 14.5 | 0.00 | 0.00 | 0.00 | 55 | 1015.7 |
| 20260906172050 | 18 | 68 | 6.4 | 12.9 | 0.00 | 0.00 | 0.00 | 55 | 1015.7 |
| 20260906171550 | 18 | 5 | 4.8 | 19.3 | 0.00 | 0.00 | 0.00 | 56 | 1015.7 |
| 20260906171049 | 18 | 302 | 4.8 | 19.3 | 0.00 | 0.00 | 0.00 | 55 | 1015.7 |
| 20260906170551 | 18 | 355 | 4.8 | 19.3 | 0.00 | 0.00 | 0.00 | 57 | 1015.6 |
| 20260906170049 | 18 | 339 | 9.7 | 17.7 | 0.00 | 0.00 | 0.00 | 58 | 1015.6 |
| 20260906165549 | 18 | 317 | 8.0 | 16.1 | 0.00 | 0.00 | 0.00 | 58 | 1015.6 |
| 20260906165049 | 19 | 335 | 8.0 | 16.1 | 0.00 | 0.00 | 0.00 | 58 | 1015.6 |
| 20260906164548 | 18 | 311 | 4.8 | 17.7 | 0.00 | 0.00 | 0.00 | 59 | 1015.5 |
| 20260906164048 | 18 | 344 | 6.4 | 17.7 | 0.00 | 0.00 | 0.00 | 58 | 1015.7 |
| 20260906163549 | 18 | 304 | 8.0 | 19.3 | 0.00 | 0.00 | 0.00 | 60 | 1015.6 |
| 20260906163052 | 18 | 328 | 9.7 | 19.3 | 0.00 | 0.00 | 0.00 | 59 | 1015.6 |
| 20260906162548 | 18 | 318 | 8.0 | 19.3 | 0.00 | 0.00 | 0.00 | 61 | 1015.6 |
| 20260906162047 | 18 | 321 | 3.2 | 14.5 | 0.00 | 0.00 | 0.00 | 59 | 1015.7 |
| 20260906161549 | 18 | 301 | 6.4 | 16.1 | 0.00 | 0.00 | 0.00 | 65 | 1015.7 |
| 20260906161047 | 17 | 314 | 8.0 | 19.3 | 0.00 | 0.00 | 0.00 | 61 | 1015.8 |
| 20260906160546 | 18 | 327 | 14.5 | 19.3 | 0.00 | 0.00 | 0.00 | 61 | 1015.9 |
| 20260906160045 | 18 | 319 | 6.4 | 17.7 | 0.00 | 0.00 | 0.00 | 59 | 1015.8 |
| 20260906155545 | 18 | 301 | 8.0 | 17.7 | 0.00 | 0.00 | 0.00 | 58 | 1015.9 |
| 20260906155044 | 18 | 9 | 8.0 | 16.1 | 0.00 | 0.00 | 0.00 | 60 | 1015.8 |
| 20260906154544 | 18 | 292 | 3.2 | 14.5 | 0.00 | 0.00 | 0.00 | 62 | 1015.8 |
| 20260906154044 | 18 | 278 | 1.6 | 11.3 | 0.00 | 0.00 | 0.00 | 63 | 1015.9 |
| 20260906153547 | 17 | 302 | 3.2 | 22.5 | 0.00 | 0.00 | 0.00 | 62 | 1016.0 |
| 20260906153052 | 17 | 333 | 6.4 | 22.5 | 0.00 | 0.00 | 0.00 | 61 | 1015.9 |
| 20260906152544 | 18 | 325 | 8.0 | 20.9 | 0.00 | 0.00 | 0.00 | 61 | 1015.9 |
| 20260906152042 | 18 | 315 | 11.3 | 19.3 | 0.00 | 0.00 | 0.00 | 59 | 1015.9 |
| 20260906151542 | 18 | 288 | 6.4 | 16.1 | 0.00 | 0.00 | 0.00 | 61 | 1015.8 |
| 20260906151040 | 18 | 344 | 6.4 | 16.1 | 0.00 | 0.00 | 0.00 | 62 | 1015.8 |
| 20260906150540 | 17 | 300 | 4.8 | 17.7 | 0.00 | 0.00 | 0.00 | 62 | 1015.6 |
| 20260906150040 | 17 | 44 | 8.0 | 17.7 | 0.00 | 0.00 | 0.00 | 61 | 1015.8 |
| 20260906145539 | 18 | 285 | 9.7 | 14.5 | 0.00 | 0.00 | 0.00 | 63 | 1015.7 |
| 20260906145041 | 18 | 53 | 4.8 | 14.5 | 0.00 | 0.00 | 0.00 | 61 | 1015.7 |
| 20260906144540 | 17 | 355 | 4.8 | 14.5 | 0.00 | 0.00 | 0.00 | 63 | 1015.7 |
| 20260906144038 | 17 | 28 | 6.4 | 19.3 | 0.00 | 0.00 | 0.00 | 62 | 1015.7 |
| 20260906143538 | 18 | 13 | 8.0 | 19.3 | 0.00 | 0.00 | 0.00 | 63 | 1015.8 |
| 20260906143037 | 17 | 331 | 4.8 | 20.9 | 0.00 | 0.00 | 0.00 | 65 | 1015.7 |
| 20260906142536 | 17 | 71 | 3.2 | 20.9 | 0.00 | 0.00 | 0.00 | 62 | 1015.6 |
| 20260906142038 | 17 | 311 | 6.4 | 22.5 | 0.00 | 0.00 | 0.00 | 63 | 1015.6 |
| 20260906141538 | 17 | 298 | 11.3 | 22.5 | 0.00 | 0.00 | 0.00 | 63 | 1015.6 |
| 20260906141034 | 17 | 288 | 9.7 | 20.9 | 0.00 | 0.00 | 0.00 | 66 | 1015.5 |
| 20260906140534 | 17 | 155 | 6.4 | 16.1 | 0.00 | 0.00 | 0.00 | 65 | 1015.5 |
| 20260906140037 | 17 | 13 | 6.4 | 16.1 | 0.00 | 0.00 | 0.00 | 63 | 1015.4 |
| 20260906135532 | 17 | 222 | 4.8 | 16.1 | 0.00 | 0.00 | 0.00 | 66 | 1015.4 |
| 20260906135030 | 17 | 38 | 4.8 | 16.1 | 0.00 | 0.00 | 0.00 | 66 | 1015.3 |
| 20260906134529 | 16 | 355 | 6.4 | 17.7 | 0.00 | 0.00 | 0.00 | 74 | 1015.4 |
| 20260906134027 | 16 | 323 | 4.8 | 17.7 | 0.00 | 0.00 | 0.00 | 75 | 1015.4 |
| 20260906133527 | 16 | 327 | 4.8 | 14.5 | 0.00 | 0.00 | 0.00 | 75 | 1015.4 |
| 20260906133036 | 16 | 297 | 6.4 | 14.5 | 0.00 | 0.00 | 0.00 | 76 | 1015.4 |
| 20260906132524 | 15 | 355 | 8.0 | 14.5 | 0.00 | 0.00 | 0.00 | 77 | 1015.3 |
| 20260906132021 | 15 | 5 | 8.0 | 14.5 | 0.00 | 0.00 | 0.00 | 82 | 1015.4 |
| 20260906131521 | 15 | 294 | 4.8 | 12.9 | 0.00 | 0.00 | 0.00 | 85 | 1015.3 |
| 20260906131022 | 15 | 313 | 6.4 | 17.7 | 0.00 | 0.00 | 0.00 | 86 | 1015.4 |
| 20260906130519 | 15 | 318 | 9.7 | 19.3 | 0.00 | 0.00 | 0.00 | 89 | 1015.4 |
| 20260906130019 | 15 | 28 | 6.4 | 14.5 | 0.00 | 0.00 | 0.00 | 91 | 1015.3 |
| 20260906125516 | 15 | 355 | 3.2 | 14.5 | 0.00 | 0.00 | 0.00 | 93 | 1015.4 |
| 20260906125016 | 15 | 323 | 6.4 | 14.5 | 0.00 | 0.00 | 0.00 | 93 | 1015.3 |
| 20260906124519 | 15 | 290 | 3.2 | 14.5 | 0.00 | 0.00 | 0.00 | 94 | 1015.3 |
| 20260906124013 | 15 | 304 | 4.8 | 14.5 | 0.00 | 0.00 | 0.00 | 94 | 1015.3 |
| 20260906123512 | 14 | 317 | 6.4 | 14.5 | 0.00 | 0.00 | 0.00 | 95 | 1015.3 |
| 20260906123027 | 14 | 313 | 4.8 | 9.7 | 0.00 | 0.00 | 0.00 | 95 | 1015.2 |
| 20260906122509 | 14 | 296 | 4.8 | 8.0 | 0.00 | 0.00 | 0.00 | 95 | 1015.2 |
| 20260906122006 | 14 | 321 | 4.8 | 9.7 | 0.00 | 0.00 | 0.00 | 95 | 1015.0 |
| 20260906121508 | 14 | 327 | 6.4 | 9.7 | 0.00 | 0.00 | 0.00 | 95 | 1014.9 |
| 20260906121005 | 14 | 309 | 4.8 | 6.4 | 0.00 | 0.00 | 0.00 | 95 | 1014.9 |
| 20260906120503 | 13 | 329 | 1.6 | 6.4 | 0.00 | 0.00 | 0.00 | 95 | 1014.7 |
| 20260906120002 | 13 | 313 | 1.6 | 4.8 | 0.00 | 0.00 | 0.00 | 95 | 1014.8 |
| 20260906115502 | 13 | 309 | 3.2 | 4.8 | 0.00 | 0.00 | 0.00 | 95 | 1014.8 |
| 20260906115001 | 13 | 295 | 0.0 | 4.8 | 0.00 | 0.00 | 0.00 | 95 | 1014.7 |
| 20260906114501 | 13 | 295 | 1.6 | 4.8 | 0.00 | 0.00 | 0.00 | 95 | 1014.7 |
| 20260906114001 | 13 | 315 | 1.6 | 6.4 | 0.00 | 0.00 | 0.00 | 95 | 1014.7 |
| 20260906113501 | 13 | 360 | 3.2 | 6.4 | 0.00 | 0.00 | 0.00 | 95 | 1014.6 |
| 20260906113002 | 13 | 319 | 3.2 | 6.4 | 0.00 | 0.00 | 0.00 | 95 | 1014.6 |
| 20260906112501 | 13 | 321 | 3.2 | 6.4 | 0.00 | 0.00 | 0.00 | 95 | 1014.7 |
| 20260906112100 | 13 | 336 | 3.2 | 6.4 | 0.00 | 0.00 | 0.00 | 95 | 1014.6 |
| 20260906111625 | 13 | 360 | 0.0 | 6.4 | 0.00 | 0.00 | 0.00 | 95 | 1014.6 |
| 20260906111101 | 13 | 308 | 3.2 | 6.4 | 0.00 | 0.00 | 0.00 | 95 | 1014.5 |
| 20260906110558 | 13 | 307 | 0.0 | 0.0 | 0.00 | 0.00 | 0.00 | 95 | 1014.4 |
| 20260906110058 | 13 | 307 | 0.0 | 4.8 | 0.00 | 0.00 | 0.00 | 95 | 1014.3 |
| 20260906105557 | 13 | 307 | 0.0 | 8.0 | 0.00 | 0.00 | 0.00 | 95 | 1014.3 |
| 20260906105100 | 13 | 307 | 1.6 | 8.0 | 0.00 | 0.00 | 0.00 | 95 | 1014.3 |
| 20260906104601 | 13 | 309 | 3.2 | 8.0 | 0.00 | 0.00 | 0.00 | 95 | 1014.1 |
| 20260906104055 | 13 | 317 | 3.2 | 6.4 | 0.00 | 0.00 | 0.00 | 95 | 1014.1 |
| 20260906103555 | 13 | 281 | 0.0 | 0.0 | 0.00 | 0.00 | 0.00 | 95 | 1014.0 |
| 20260906103055 | 13 | 282 | 0.0 | 3.2 | 0.00 | 0.00 | 0.00 | 95 | 1014.0 |
| 20260906102554 | 13 | 281 | 0.0 | 6.4 | 0.00 | 0.00 | 0.00 | 95 | 1014.0 |
| 20260906102053 | 13 | 296 | 0.0 | 6.4 | 0.00 | 0.00 | 0.00 | 95 | 1014.0 |
| 20260906101553 | 13 | 300 | 0.0 | 0.0 | 0.00 | 0.00 | 0.00 | 95 | 1013.9 |
| 20260906101056 | 13 | 278 | 0.0 | 0.0 | 0.00 | 0.00 | 0.00 | 94 | 1013.8 |
| 20260906100552 | 13 | 278 | 0.0 | 0.0 | 0.00 | 0.00 | 0.00 | 94 | 1013.7 |
| 20260906100051 | 13 | 243 | 0.0 | 0.0 | 0.00 | 0.00 | 0.00 | 94 | 1013.6 |
| 20260906095552 | 13 | 243 | 0.0 | 0.0 | 0.00 | 0.00 | 0.00 | 94 | 1013.5 |
| 20260906095049 | 13 | 243 | 0.0 | 0.0 | 0.00 | 0.00 | 0.00 | 94 | 1013.5 |
| 20260906094548 | 13 | 243 | 0.0 | 0.0 | 0.00 | 0.00 | 0.00 | 94 | 1013.3 |
| 20260906094049 | 13 | 243 | 0.0 | 0.0 | 0.00 | 0.00 | 0.00 | 94 | 1013.3 |
| 20260906093548 | 13 | 242 | 0.0 | 0.0 | 0.00 | 0.00 | 0.00 | 94 | 1013.2 |
| 20260906093056 | 13 | 242 | 0.0 | 0.0 | 0.00 | 0.00 | 0.00 | 94 | 1013.3 |
| 20260906092547 | 13 | 242 | 0.0 | 0.0 | 0.00 | 0.00 | 0.00 | 94 | 1013.2 |
| 20260906092046 | 13 | 242 | 0.0 | 0.0 | 0.00 | 0.00 | 0.00 | 94 | 1013.1 |
| 20260906091546 | 13 | 242 | 0.0 | 0.0 | 0.00 | 0.00 | 0.00 | 94 | 1013.1 |
| 20260906091046 | 13 | 263 | 0.0 | 0.0 | 0.00 | 0.00 | 0.00 | 94 | 1013.1 |
| 20260906090545 | 13 | 265 | 0.0 | 0.0 | 0.00 | 0.00 | 0.00 | 94 | 1013.1 |
| 20260906090046 | 13 | 360 | 0.0 | 0.0 | 0.00 | 0.00 | 0.00 | 94 | 1013.0 |
| 20260906085545 | 13 | 265 | 0.0 | 0.0 | 0.00 | 0.00 | 0.00 | 94 | 1013.0 |
| 20260906085045 | 13 | 265 | 0.0 | 0.0 | 0.00 | 0.00 | 0.00 | 94 | 1013.1 |
| 20260906084548 | 13 | 265 | 0.0 | 0.0 | 0.00 | 0.00 | 0.00 | 94 | 1013.1 |
| 20260906084045 | 13 | 265 | 0.0 | 0.0 | 0.00 | 0.00 | 0.00 | 94 | 1012.9 |
| 20260906083543 | 13 | 265 | 0.0 | 0.0 | 0.00 | 0.00 | 0.00 | 94 | 1012.8 |
| 20260906083043 | 13 | 267 | 0.0 | 0.0 | 0.00 | 0.00 | 0.00 | 94 | 1012.8 |
| 20260906082542 | 13 | 267 | 0.0 | 0.0 | 0.00 | 0.00 | 0.00 | 93 | 1012.8 |
| 20260906082041 | 13 | 267 | 0.0 | 0.0 | 0.00 | 0.00 | 0.00 | 94 | 1012.8 |
| 20260906081550 | 13 | 266 | 0.0 | 0.0 | 0.00 | 0.00 | 0.00 | 93 | 1012.7 |
| 20260906081040 | 13 | 267 | 0.0 | 0.0 | 0.00 | 0.00 | 0.00 | 93 | 1012.7 |
| 20260906080540 | 13 | 267 | 0.0 | 0.0 | 0.00 | 0.00 | 0.00 | 93 | 1012.6 |
| 20260906080040 | 13 | 266 | 0.0 | 0.0 | 0.00 | 0.00 | 0.00 | 93 | 1012.7 |
| 20260906075539 | 13 | 267 | 0.0 | 0.0 | 0.00 | 0.00 | 0.00 | 93 | 1012.7 |
| 20260906075039 | 13 | 267 | 0.0 | 0.0 | 0.00 | 0.00 | 0.00 | 93 | 1012.6 |
| 20260906074539 | 13 | 267 | 0.0 | 0.0 | 0.00 | 0.00 | 0.00 | 93 | 1012.7 |
| 20260906074039 | 13 | 267 | 0.0 | 0.0 | 0.00 | 0.00 | 0.00 | 93 | 1012.6 |
| 20260906073538 | 13 | 267 | 0.0 | 0.0 | 0.00 | 0.00 | 0.00 | 93 | 1012.6 |
| 20260906073050 | 13 | 267 | 0.0 | 0.0 | 0.00 | 0.00 | 0.00 | 93 | 1012.6 |
| 20260906072538 | 13 | 267 | 0.0 | 0.0 | 0.00 | 0.00 | 0.00 | 93 | 1012.5 |
| 20260906072037 | 13 | 267 | 0.0 | 0.0 | 0.00 | 0.00 | 0.00 | 93 | 1012.5 |
| 20260906071537 | 13 | 267 | 0.0 | 0.0 | 0.00 | 0.00 | 0.00 | 93 | 1012.5 |
| 20260906071037 | 13 | 267 | 0.0 | 0.0 | 0.00 | 0.00 | 0.00 | 93 | 1012.6 |
| 20260906070537 | 13 | 267 | 0.0 | 0.0 | 0.00 | 0.00 | 0.00 | 92 | 1012.5 |
| 20260906070040 | 13 | 267 | 0.0 | 0.0 | 0.00 | 0.00 | 0.00 | 92 | 1012.6 |
| 20260906065538 | 13 | 267 | 0.0 | 0.0 | 0.00 | 0.00 | 0.00 | 92 | 1012.5 |
| 20260906065035 | 13 | 267 | 0.0 | 0.0 | 0.00 | 0.00 | 0.00 | 92 | 1012.5 |
| 20260906064535 | 13 | 267 | 0.0 | 0.0 | 0.00 | 0.00 | 0.00 | 92 | 1012.5 |
| 20260906064035 | 13 | 267 | 0.0 | 0.0 | 0.00 | 0.00 | 0.00 | 92 | 1012.4 |
| 20260906063533 | 13 | 267 | 0.0 | 0.0 | 0.00 | 0.00 | 0.00 | 92 | 1012.3 |
| 20260906063033 | 13 | 267 | 0.0 | 0.0 | 0.00 | 0.00 | 0.00 | 92 | 1012.2 |
| 20260906062533 | 13 | 267 | 0.0 | 0.0 | 0.00 | 0.00 | 0.00 | 92 | 1012.2 |
| 20260906062032 | 13 | 267 | 0.0 | 0.0 | 0.00 | 0.00 | 0.00 | 91 | 1012.2 |
| 20260906061530 | 13 | 267 | 0.0 | 0.0 | 0.00 | 0.00 | 0.00 | 91 | 1012.2 |
| 20260906061030 | 13 | 267 | 0.0 | 0.0 | 0.00 | 0.00 | 0.00 | 91 | 1012.3 |
| 20260906060532 | 14 | 267 | 0.0 | 0.0 | 0.00 | 0.00 | 0.00 | 91 | 1012.3 |
| 20260906060028 | 14 | 267 | 0.0 | 0.0 | 0.00 | 0.00 | 0.00 | 91 | 1012.4 |
| 20260906055528 | 14 | 267 | 0.0 | 0.0 | 0.00 | 0.00 | 0.00 | 91 | 1012.4 |
| 20260906055028 | 14 | 267 | 0.0 | 0.0 | 0.00 | 0.00 | 0.00 | 91 | 1012.4 |
| 20260906054527 | 14 | 267 | 0.0 | 0.0 | 0.00 | 0.00 | 0.00 | 90 | 1012.5 |
| 20260906054027 | 14 | 267 | 0.0 | 0.0 | 0.00 | 0.00 | 0.00 | 90 | 1012.5 |
| 20260906053525 | 14 | 267 | 0.0 | 0.0 | 0.00 | 0.00 | 0.00 | 90 | 1012.5 |
| 20260906053034 | 15 | 267 | 0.0 | 0.0 | 0.00 | 0.00 | 0.00 | 90 | 1012.5 |
| 20260906052526 | 15 | 267 | 0.0 | 0.0 | 0.00 | 0.00 | 0.00 | 90 | 1012.5 |
| 20260906052025 | 15 | 267 | 0.0 | 0.0 | 0.00 | 0.00 | 0.00 | 90 | 1012.5 |
| 20260906051524 | 15 | 267 | 0.0 | 0.0 | 0.00 | 0.00 | 0.00 | 90 | 1012.6 |
| 20260906051027 | 15 | 267 | 0.0 | 0.0 | 0.00 | 0.00 | 0.00 | 90 | 1012.5 |
| 20260906050523 | 15 | 267 | 0.0 | 0.0 | 0.00 | 0.00 | 0.00 | 90 | 1012.5 |
| 20260906050023 | 15 | 267 | 0.0 | 0.0 | 0.00 | 0.00 | 0.00 | 90 | 1012.6 |
| 20260906045523 | 15 | 267 | 0.0 | 0.0 | 0.00 | 0.00 | 0.00 | 90 | 1012.6 |
| 20260906045024 | 15 | 267 | 0.0 | 0.0 | 0.00 | 0.00 | 0.00 | 90 | 1012.5 |
| 20260906044523 | 15 | 267 | 0.0 | 0.0 | 0.00 | 0.00 | 0.00 | 90 | 1012.5 |
| 20260906044022 | 15 | 267 | 0.0 | 0.0 | 0.00 | 0.00 | 0.00 | 90 | 1012.6 |
| 20260906043523 | 15 | 267 | 0.0 | 0.0 | 0.00 | 0.00 | 0.00 | 90 | 1012.6 |
| 20260906043038 | 15 | 267 | 0.0 | 0.0 | 0.00 | 0.00 | 0.00 | 90 | 1012.6 |
| 20260906042521 | 15 | 267 | 0.0 | 0.0 | 0.00 | 0.00 | 0.00 | 90 | 1012.6 |
| 20260906042020 | 15 | 267 | 0.0 | 0.0 | 0.00 | 0.00 | 0.00 | 90 | 1012.6 |
| 20260906041520 | 15 | 267 | 0.0 | 0.0 | 0.00 | 0.00 | 0.00 | 90 | 1012.6 |
| 20260906041020 | 15 | 267 | 0.0 | 0.0 | 0.00 | 0.00 | 0.00 | 90 | 1012.6 |
| 20260906040520 | 15 | 267 | 0.0 | 0.0 | 0.00 | 0.00 | 0.00 | 90 | 1012.5 |
| 20260906040019 | 15 | 267 | 0.0 | 0.0 | 0.00 | 0.00 | 0.00 | 90 | 1012.6 |
| 20260906035519 | 15 | 267 | 0.0 | 0.0 | 0.00 | 0.00 | 0.00 | 90 | 1012.6 |
| 20260906035019 | 15 | 267 | 0.0 | 0.0 | 0.00 | 0.00 | 0.00 | 90 | 1012.6 |
| 20260906034524 | 15 | 267 | 0.0 | 0.0 | 0.00 | 0.00 | 0.00 | 90 | 1012.6 |
| 20260906034017 | 15 | 267 | 0.0 | 0.0 | 0.00 | 0.00 | 0.00 | 90 | 1012.5 |
| 20260906033517 | 15 | 267 | 0.0 | 0.0 | 0.00 | 0.00 | 0.00 | 90 | 1012.5 |
| 20260906033017 | 15 | 267 | 0.0 | 0.0 | 0.00 | 0.00 | 0.00 | 90 | 1012.5 |
| 20260906032517 | 15 | 267 | 0.0 | 0.0 | 0.00 | 0.00 | 0.00 | 90 | 1012.5 |
| 20260906032017 | 15 | 267 | 0.0 | 0.0 | 0.00 | 0.00 | 0.00 | 90 | 1012.5 |
| 20260906031516 | 15 | 267 | 0.0 | 0.0 | 0.00 | 0.00 | 0.00 | 90 | 1012.5 |
| 20260906031016 | 15 | 267 | 0.0 | 0.0 | 0.00 | 0.00 | 0.00 | 90 | 1012.4 |
| 20260906030516 | 15 | 267 | 0.0 | 0.0 | 0.00 | 0.00 | 0.00 | 90 | 1012.3 |
| 20260906030016 | 15 | 267 | 0.0 | 0.0 | 0.00 | 0.00 | 0.00 | 90 | 1012.3 |
| 20260906025515 | 15 | 267 | 0.0 | 0.0 | 0.00 | 0.00 | 0.00 | 90 | 1012.3 |
| 20260906025017 | 15 | 267 | 0.0 | 0.0 | 0.00 | 0.00 | 0.00 | 90 | 1012.2 |
| 20260906024515 | 15 | 267 | 0.0 | 0.0 | 0.00 | 0.00 | 0.00 | 90 | 1012.3 |
| 20260906024016 | 15 | 360 | 0.0 | 0.0 | 0.00 | 0.00 | 0.00 | 90 | 1012.3 |
| 20260906023515 | 15 | 360 | 0.0 | 0.0 | 0.00 | 0.00 | 0.00 | 90 | 1012.3 |
| 20260906023016 | 15 | 241 | 0.0 | 0.0 | 0.00 | 0.00 | 0.00 | 89 | 1012.3 |
| 20260906022515 | 15 | 267 | 0.0 | 0.0 | 0.00 | 0.00 | 0.00 | 89 | 1012.3 |
| 20260906022014 | 15 | 267 | 0.0 | 0.0 | 0.00 | 0.00 | 0.00 | 89 | 1012.3 |
| 20260906021515 | 15 | 267 | 0.0 | 0.0 | 0.00 | 0.00 | 0.00 | 89 | 1012.3 |
| 20260906021014 | 15 | 267 | 0.0 | 0.0 | 0.00 | 0.00 | 0.00 | 89 | 1012.3 |
| 20260906020515 | 15 | 268 | 0.0 | 0.0 | 0.00 | 0.00 | 0.00 | 89 | 1012.2 |
| 20260906020016 | 15 | 268 | 0.0 | 0.0 | 0.00 | 0.00 | 0.00 | 88 | 1012.3 |
| 20260906015513 | 15 | 268 | 0.0 | 0.0 | 0.00 | 0.00 | 0.00 | 88 | 1012.4 |
| 20260906015013 | 15 | 268 | 0.0 | 0.0 | 0.00 | 0.00 | 0.00 | 88 | 1012.4 |
| 20260906014520 | 15 | 268 | 0.0 | 0.0 | 0.00 | 0.00 | 0.00 | 88 | 1012.3 |
| 20260906014012 | 15 | 268 | 0.0 | 0.0 | 0.00 | 0.00 | 0.00 | 88 | 1012.3 |
| 20260906013512 | 16 | 268 | 0.0 | 0.0 | 0.00 | 0.00 | 0.00 | 88 | 1012.2 |
| 20260906013012 | 16 | 275 | 0.0 | 0.0 | 0.00 | 0.00 | 0.00 | 88 | 1012.2 |
| 20260906012517 | 16 | 287 | 0.0 | 0.0 | 0.00 | 0.00 | 0.00 | 88 | 1012.2 |
| 20260906012011 | 16 | 288 | 0.0 | 0.0 | 0.00 | 0.00 | 0.00 | 88 | 1012.2 |
| 20260906011511 | 15 | 227 | 0.0 | 0.0 | 0.00 | 0.00 | 0.00 | 88 | 1012.3 |
| 20260906011015 | 15 | 227 | 0.0 | 0.0 | 0.00 | 0.00 | 0.00 | 88 | 1012.3 |
| 20260906010510 | 15 | 223 | 0.0 | 0.0 | 0.00 | 0.00 | 0.00 | 88 | 1012.2 |
| 20260906010011 | 15 | 222 | 0.0 | 0.0 | 0.00 | 0.00 | 0.00 | 88 | 1012.1 |
| 20260906005510 | 16 | 222 | 0.0 | 0.0 | 0.00 | 0.00 | 0.00 | 88 | 1012.2 |
| 20260906005010 | 16 | 222 | 0.0 | 1.6 | 0.00 | 0.00 | 0.00 | 87 | 1012.1 |
| 20260906004510 | 16 | 220 | 0.0 | 0.0 | 0.00 | 0.00 | 0.00 | 87 | 1012.0 |
| 20260906004013 | 16 | 220 | 0.0 | 0.0 | 0.00 | 0.00 | 0.00 | 87 | 1011.9 |
| 20260906003510 | 16 | 220 | 0.0 | 0.0 | 0.00 | 0.00 | 0.00 | 87 | 1011.7 |
| 20260906003010 | 16 | 220 | 0.0 | 0.0 | 0.00 | 0.00 | 0.00 | 87 | 1011.8 |
| 20260906002510 | 16 | 220 | 0.0 | 0.0 | 0.00 | 0.00 | 0.00 | 87 | 1011.9 |
| 20260906002009 | 16 | 220 | 0.0 | 0.0 | 0.00 | 0.00 | 0.00 | 86 | 1012.0 |
| 20260906001509 | 16 | 220 | 0.0 | 0.0 | 0.00 | 0.00 | 0.00 | 86 | 1012.1 |
| 20260906001008 | 16 | 220 | 0.0 | 0.0 | 0.00 | 0.00 | 0.00 | 86 | 1012.1 |
| 20260906000507 | 16 | 220 | 0.0 | 0.0 | 0.00 | 0.00 | 0.00 | 86 | 1011.9 |
| 20260906000008 | 16 | 220 | 0.0 | 0.0 | 0.00 | 0.00 | 0.00 | 85 | 1011.9 |
| 20260905235507 | 16 | 218 | 0.0 | 0.0 | 0.00 | 0.00 | 0.00 | 85 | 1012.0 |
| 20260905235009 | 16 | 220 | 0.0 | 0.0 | 0.00 | 0.00 | 0.00 | 84 | 1011.9 |
| 20260905234506 | 16 | 360 | 0.0 | 0.0 | 0.00 | 0.00 | 0.00 | 84 | 1011.8 |
| 20260905234007 | 16 | 220 | 0.0 | 0.0 | 0.00 | 0.00 | 0.00 | 84 | 1011.7 |
| 20260905233507 | 17 | 360 | 0.0 | 0.0 | 0.00 | 0.00 | 0.00 | 83 | 1011.7 |
| 20260905233010 | 17 | 360 | 0.0 | 0.0 | 0.00 | 0.00 | 0.00 | 82 | 1011.8 |
| 20260905232506 | 17 | 360 | 0.0 | 3.2 | 0.00 | 0.00 | 0.00 | 82 | 1011.7 |
| 20260905232006 | 17 | 220 | 0.0 | 3.2 | 0.00 | 0.00 | 0.00 | 81 | 1011.7 |
| 20260905231512 | 17 | 309 | 0.0 | 0.0 | 0.00 | 0.00 | 0.00 | 80 | 1011.8 |
| 20260905231006 | 17 | 309 | 0.0 | 0.0 | 0.00 | 0.00 | 0.00 | 80 | 1011.8 |
| 20260905230506 | 17 | 309 | 0.0 | 0.0 | 0.00 | 0.00 | 0.00 | 80 | 1011.8 |
| 20260905230006 | 17 | 309 | 0.0 | 3.2 | 0.00 | 0.00 | 0.00 | 79 | 1011.8 |
| 20260905225505 | 18 | 309 | 0.0 | 3.2 | 0.00 | 0.00 | 0.00 | 79 | 1011.8 |
| 20260905225005 | 17 | 309 | 0.0 | 3.2 | 0.00 | 0.00 | 0.00 | 78 | 1011.9 |
| 20260905224505 | 17 | 309 | 0.0 | 4.8 | 0.00 | 0.00 | 0.00 | 78 | 1011.9 |
| 20260905224007 | 18 | 309 | 1.6 | 4.8 | 0.00 | 0.00 | 0.00 | 78 | 1011.9 |
| 20260905223506 | 18 | 309 | 3.2 | 8.0 | 0.00 | 0.00 | 0.00 | 77 | 1011.8 |
| 20260905223004 | 18 | 317 | 0.0 | 8.0 | 0.00 | 0.00 | 0.00 | 77 | 1011.8 |
| 20260905222506 | 18 | 301 | 3.2 | 8.0 | 0.00 | 0.00 | 0.00 | 76 | 1011.7 |
| 20260905222003 | 18 | 290 | 3.2 | 6.4 | 0.00 | 0.00 | 0.00 | 78 | 1011.6 |
| 20260905221503 | 18 | 292 | 3.2 | 6.4 | 0.00 | 0.00 | 0.00 | 78 | 1011.6 |
| 20260905221002 | 18 | 262 | 0.0 | 4.8 | 0.00 | 0.00 | 0.00 | 79 | 1011.4 |
| 20260905220506 | 18 | 303 | 0.0 | 4.8 | 0.00 | 0.00 | 0.00 | 80 | 1011.4 |
| 20260905220003 | 18 | 300 | 0.0 | 8.0 | 0.00 | 0.00 | 0.00 | 79 | 1011.3 |
| 20260905215503 | 18 | 282 | 3.2 | 8.0 | 0.00 | 0.00 | 0.00 | 78 | 1011.3 |
| 20260905215002 | 18 | 285 | 3.2 | 6.4 | 0.00 | 0.00 | 0.00 | 78 | 1011.4 |
| 20260905214503 | 18 | 273 | 3.2 | 8.0 | 0.00 | 0.00 | 0.00 | 79 | 1011.3 |
| 20260905214002 | 18 | 283 | 3.2 | 8.0 | 0.00 | 0.00 | 0.00 | 78 | 1011.2 |
| 20260905213502 | 18 | 305 | 4.8 | 8.0 | 0.00 | 0.00 | 0.00 | 77 | 1011.1 |
| 20260905213002 | 18 | 324 | 3.2 | 12.9 | 0.00 | 0.00 | 0.00 | 77 | 1011.1 |
| 20260905212502 | 18 | 295 | 4.8 | 12.9 | 0.00 | 0.00 | 0.00 | 76 | 1011.1 |
| 20260905212001 | 18 | 292 | 6.4 | 14.5 | 0.00 | 0.00 | 0.00 | 75 | 1011.1 |
| 20260905211501 | 18 | 273 | 4.8 | 14.5 | 0.00 | 0.00 | 0.00 | 74 | 1011.1 |
| 20260905211002 | 18 | 309 | 4.8 | 14.5 | 0.00 | 0.00 | 0.00 | 73 | 1011.0 |
| 20260905210503 | 18 | 302 | 4.8 | 12.9 | 0.00 | 0.00 | 0.00 | 72 | 1011.1 |
| 20260905210001 | 19 | 286 | 4.8 | 12.9 | 0.00 | 0.00 | 0.00 | 73 | 1011.1 |
| 20260905205501 | 19 | 288 | 3.2 | 9.7 | 0.00 | 0.00 | 0.00 | 73 | 1010.9 |
| 20260905205001 | 19 | 304 | 3.2 | 8.0 | 0.00 | 0.00 | 0.00 | 74 | 1011.0 |
| 20260905204502 | 19 | 311 | 3.2 | 8.0 | 0.00 | 0.00 | 0.00 | 75 | 1010.9 |
| 20260905204104 | 19 | 307 | 3.2 | 8.0 | 0.00 | 0.00 | 0.00 | 75 | 1011.0 |
| 20260905203600 | 19 | 309 | 4.8 | 6.4 | 0.00 | 0.00 | 0.00 | 75 | 1011.0 |
| 20260905203102 | 19 | 306 | 0.0 | 6.4 | 0.00 | 0.00 | 0.00 | 74 | 1011.0 |
| 20260905202600 | 19 | 306 | 1.6 | 8.0 | 0.00 | 0.00 | 0.00 | 74 | 1011.0 |
| 20260905202059 | 19 | 306 | 4.8 | 8.0 | 0.00 | 0.00 | 0.00 | 72 | 1011.1 |
| 20260905201600 | 20 | 306 | 3.2 | 8.0 | 0.00 | 0.00 | 0.00 | 72 | 1011.0 |
| 20260905201059 | 20 | 309 | 3.2 | 11.3 | 0.00 | 0.00 | 0.00 | 71 | 1010.9 |
| 20260905200559 | 19 | 309 | 3.2 | 8.0 | 0.00 | 0.00 | 0.00 | 71 | 1010.9 |
| 20260905200100 | 19 | 303 | 1.6 | 6.4 | 0.00 | 0.00 | 0.00 | 71 | 1010.8 |
| 20260905195558 | 19 | 315 | 1.6 | 11.3 | 0.00 | 0.00 | 0.00 | 72 | 1010.8 |
| 20260905195100 | 18 | 302 | 4.8 | 11.3 | 0.00 | 0.00 | 0.00 | 71 | 1010.9 |
| 20260905194558 | 18 | 313 | 3.2 | 8.0 | 0.00 | 0.00 | 0.00 | 72 | 1010.8 |
| 20260905194057 | 18 | 302 | 4.8 | 8.0 | 0.00 | 0.00 | 0.00 | 72 | 1010.8 |
| 20260905193557 | 18 | 305 | 3.2 | 6.4 | 0.00 | 0.00 | 0.00 | 73 | 1010.8 |
| 20260905193057 | 18 | 302 | 1.6 | 6.4 | 0.00 | 0.00 | 0.00 | 71 | 1010.8 |
| 20260905192557 | 18 | 314 | 0.0 | 6.4 | 0.00 | 0.00 | 0.00 | 72 | 1010.8 |
| 20260905192100 | 18 | 314 | 1.6 | 6.4 | 0.00 | 0.00 | 0.00 | 71 | 1010.8 |